Overview Statistics Trail Chart Weather Telemetry Raw packets
 

This is the latest recevied weather packets stored in our database for station/object SA7AHC. If no packets are shown the sender has not sent any weather packets the latest 10 day(s).

<< 46 47 48 49 50 51 52 >>
Time Temp. Humidity Pressure Rain* Wind** Luminosity Snow
1787921103 20° C 56% 1015.7 hPa 0 mm - 156 W/m² -
1787920501 20° C 57% 1015.7 hPa 0 mm - 237 W/m² -
1787919901 20° C 57% 1015.7 hPa 0 mm - 148 W/m² -
1787919301 20.56° C 58% 1016 hPa 0 mm - 171 W/m² -
1787918702 20.56° C 58% 1016.1 hPa 0 mm - 223 W/m² -
1787918103 20.56° C 57% 1016.2 hPa 0 mm - 257 W/m² -
1787917501 20.56° C 59% 1016.2 hPa 0 mm - 338 W/m² -
1787916901 20.56° C 60% 1016.5 hPa 0 mm - 380 W/m² -
1787916305 20.56° C 64% 1016.4 hPa 0 mm - 425 W/m² -
1787915701 20.56° C 65% 1016.6 hPa 0 mm - 279 W/m² -
1787915101 20.56° C 66% 1016.8 hPa 0 mm - 359 W/m² -
1787914503 20.56° C 67% 1016.8 hPa 0 mm - 352 W/m² -
1787913901 20.56° C 68% 1017.1 hPa 0 mm - 390 W/m² -
1787913301 20° C 67% 1017.2 hPa 0 mm - 420 W/m² -
1787912701 20° C 69% 1017.2 hPa 0 mm - 417 W/m² -
1787912101 20° C 68% 1017.7 hPa 0 mm - 422 W/m² -
1787911500 20° C 70% 1017.8 hPa 0 mm - 436 W/m² -
1787910901 20.56° C 70% 1017.8 hPa 0 mm - 420 W/m² -
1787910301 20° C 75% 1018.1 hPa 0 mm - 543 W/m² -
1787909701 18.89° C 79% 1018.2 hPa 0 mm - 519 W/m² -
1787909101 18.33° C 80% 1018.2 hPa 0 mm - 315 W/m² -
1787908501 17.78° C 82% 1018.7 hPa 0 mm - 383 W/m² -
1787907906 17.78° C 83% 1018.9 hPa 0 mm - 267 W/m² -
1787907303 17.22° C 83% 1018.9 hPa 0 mm - 232 W/m² -
1787906701 17.22° C 84% 1018.9 hPa 0 mm - 202 W/m² -

* Rain latest hour (hover to see other rain measurements)
** Current wind speed in m/s (hover to see current wind gust speed)